Powrót do katalogu

NTS 2

LostNawigacjaHEO
NORAD 10091·PAYLOAD·🇺🇸 United States

Wystrzelony Jun 23, 1977 z Vandenberg Space Force Base

Loading…

Następne Przeloty (najbliższe 24 godziny)

TLE

NieaktualneSource: Space-Track

Epoka: Aug 3, 2026, 03:13 UTC

1 10091U 77053A   26215.13424075  .00000008  00000-0  00000+0 0  9992
2 10091  63.0451 279.5730 0071334 220.7701 207.8982  2.00460177359620

Śledź NTS 2 w czasie rzeczywistym z AllMySat

Download on the App Store